PORTS® Data Listing: 8771341 Galveston Bay Entrance, North Jetty,

CO-OPS RAW PORTS DATA

************************      PRELIMINARY DATA      ************************** 

     THIS RAW DATA HAS NOT BEEN SUBJECT TO THE NATIONAL OCEAN SERVICE'S        
     QUALITY CONTROL OR QUALITY ASSURANCE PROCEDURES AND DOES NOT MEET         
     THE CRITERIA AND STANDARDS OF OFFICIAL NATIONAL OCEAN SERVICE             
     DATA.  IT IS RELEASED FOR LIMITED PUBLIC USE AS PRELIMINARY DATA TO       
     BE USED ONLY WITH APPROPRIATE CAUTION.                                    

************************      PRELIMINARY DATA      ************************** 


       CD   -   Calendar date
       T    -   Time
       TZ   -   Timezone
       PW   -   Predicted water level (feet above MLLW)
       OW   -   Observed water level (feet above MLLW)
       WS   -   Wind speed (knots)
       WD   -   Wind direction (degrees true)
       WG   -   Wind gust (knots)
       AT   -   Air temperature (degrees farenheit)
       WT   -   Water temperature (degrees farenheit)
       AP   -   Air pressure (millibars)
       SA   -   Salinty (PSU - Practical Salinity Units)
       SG   -   Specific gravity
       RH   -   Relative humidity
       AG   -   Air gap (feet)
       VI   -   Visibility (nautical miles)

       ** NOTE **
       A variable that has its data fields filled with "9"s, indicates that
       data was not collected for that sample period.
       **********


STATION NAME: Galveston Bay Entrance (8771341)
****************************************************************************************************
    CD       T    TZ    PW     OW    WS   WD   WG    AT    WT    AP    SA    SG     RH    AG   VI
****************************************************************************************************
2019/11/21 12:42 CST    1.19   1.92   11  118   11  67.8  63.5 1014.6 -9.9 -9.999 -99.9 -99.99 -9.99
2019/11/21 12:48 CST    1.17   1.87   11  117   11  67.8  63.5 1014.5 -9.9 -9.999 -99.9 -99.99 -9.99
2019/11/21 12:54 CST    1.16   1.86   11  120   11  68.0  63.5 1014.4 -9.9 -9.999 -99.9 -99.99 -9.99
2019/11/21 13:00 CST    1.14   1.87   11  124   12  68.0  63.5 1014.3 -9.9 -9.999 -99.9 -99.99 -9.99
2019/11/21 13:06 CST    1.12   1.88   10  124   11  67.8  63.5 1014.3 -9.9 -9.999 -99.9 -99.99 -9.99
2019/11/21 13:12 CST    1.10   1.86   10  122   11  67.8  63.5 1014.2 -9.9 -9.999 -99.9 -99.99 -9.99
2019/11/21 13:18 CST    1.08   1.81   10  127   11  68.4  63.5 1014.1 -9.9 -9.999 -99.9 -99.99 -9.99
2019/11/21 13:24 CST    1.06   1.75   10  126   11  68.4  63.5 1014.0 -9.9 -9.999 -99.9 -99.99 -9.99
2019/11/21 13:30 CST    1.04   1.74   11  123   12  68.4  63.5 1013.9 -9.9 -9.999 -99.9 -99.99 -9.99
2019/11/21 13:36 CST    1.02   1.72   10  125   11  68.4  63.5 1014.0 -9.9 -9.999 -99.9 -99.99 -9.99
2019/11/21 13:42 CST    1.00   1.69   10  120   11  68.2  63.5 1014.0 -9.9 -9.999 -99.9 -99.99 -9.99
2019/11/21 13:48 CST    0.98   1.70   11  117   11  68.0  63.5 1013.9 -9.9 -9.999 -99.9 -99.99 -9.99
2019/11/21 13:54 CST    0.96   1.67   10  118   11  68.0  63.5 1013.9 -9.9 -9.999 -99.9 -99.99 -9.99
2019/11/21 14:00 CST    0.94   1.66   11  114   11  68.2  63.5 1013.8 -9.9 -9.999 -99.9 -99.99 -9.99
2019/11/21 14:06 CST    0.91   1.66   11  124   12  68.5  63.5 1013.6 -9.9 -9.999 -99.9 -99.99 -9.99
2019/11/21 14:12 CST    0.89   1.64   11  129   12  68.5  63.5 1013.6 -9.9 -9.999 -99.9 -99.99 -9.99
2019/11/21 14:18 CST    0.87   1.62   10  132   11  68.4  63.5 1013.7 -9.9 -9.999 -99.9 -99.99 -9.99
2019/11/21 14:24 CST    0.86   1.63   10  129   11  68.4  63.5 1013.6 -9.9 -9.999 -99.9 -99.99 -9.99
2019/11/21 14:30 CST    0.84   1.66   12  118   12  68.2  63.5 1013.6 -9.9 -9.999 -99.9 -99.99 -9.99
2019/11/21 14:36 CST    0.82   1.62   11  124   12  68.4  63.5 1013.6 -9.9 -9.999 -99.9 -99.99 -9.99
2019/11/21 14:42 CST    0.80   1.63   11  127   13  68.5  63.5 1013.6 -9.9 -9.999 -99.9 -99.99 -9.99
2019/11/21 14:48 CST    0.78   1.63   11  129   13  68.5  63.7 1013.6 -9.9 -9.999 -99.9 -99.99 -9.99
2019/11/21 14:54 CST    0.77   1.57   11  133   12  68.7  63.7 1013.6 -9.9 -9.999 -99.9 -99.99 -9.99
2019/11/21 15:00 CST    0.75   1.55   11  129   12  68.7  63.7 1013.6 -9.9 -9.999 -99.9 -99.99 -9.99
2019/11/21 15:06 CST    0.74   1.54   11  127   12  68.9  63.7 1013.6 -9.9 -9.999 -99.9 -99.99 -9.99
2019/11/21 15:12 CST    0.72   1.53   11  128   12  68.7  63.7 1013.5 -9.9 -9.999 -99.9 -99.99 -9.99
2019/11/21 15:18 CST    0.71   1.54   11  126   12  68.9  63.7 1013.6 -9.9 -9.999 -99.9 -99.99 -9.99
2019/11/21 15:24 CST    0.70   1.55   10  127   11  69.1  63.7 1013.7 -9.9 -9.999 -99.9 -99.99 -9.99
2019/11/21 15:30 CST    0.68   1.54   10  123   11  68.9  63.7 1013.8 -9.9 -9.999 -99.9 -99.99 -9.99
2019/11/21 15:36 CST    0.67   1.55   10  120   11  68.9  63.7 1013.7 -9.9 -9.999 -99.9 -99.99 -9.99
2019/11/21 15:42 CST    0.66   1.53   10  129   11  68.5  63.7 1013.6 -9.9 -9.999 -99.9 -99.99 -9.99
2019/11/21 15:48 CST    0.65   1.52   10  125   11  68.4  63.5 1013.6 -9.9 -9.999 -99.9 -99.99 -9.99
2019/11/21 15:54 CST    0.65   1.49   10  126   11  68.4  63.5 1013.6 -9.9 -9.999 -99.9 -99.99 -9.99
2019/11/21 16:00 CST    0.64   1.46   11  123   11  68.2  63.5 1013.6 -9.9 -9.999 -99.9 -99.99 -9.99
2019/11/21 16:06 CST    0.63   1.46   11  122   12  68.2  63.5 1013.7 -9.9 -9.999 -99.9 -99.99 -9.99
2019/11/21 16:12 CST    0.63   1.39   11  123   13  69.1  63.5 1013.6 -9.9 -9.999 -99.9 -99.99 -9.99
2019/11/21 16:18 CST    0.62   1.42   11  122   12  69.1  63.5 1013.7 -9.9 -9.999 -99.9 -99.99 -9.99
2019/11/21 16:24 CST    0.62   1.41   10  134   12  69.1  63.5 1013.8 -9.9 -9.999 -99.9 -99.99 -9.99
2019/11/21 16:30 CST    0.61   1.39    9  133   10  68.9  63.5 1013.9 -9.9 -9.999 -99.9 -99.99 -9.99
2019/11/21 16:36 CST    0.61   1.40    9  129   10  68.5  63.5 1013.9 -9.9 -9.999 -99.9 -99.99 -9.99
2019/11/21 16:42 CST    0.61   1.44   10  122   11  68.7  63.5 1013.8 -9.9 -9.999 -99.9 -99.99 -9.99
2019/11/21 16:48 CST    0.60   1.42   12  129   13  68.7  63.7 1013.9 -9.9 -9.999 -99.9 -99.99 -9.99
2019/11/21 16:54 CST    0.60   1.36   11  132   13  68.9  63.7 1013.9 -9.9 -9.999 -99.9 -99.99 -9.99
2019/11/21 17:00 CST    0.60   1.37   13  135   14  69.1  63.7 1013.8 -9.9 -9.999 -99.9 -99.99 -9.99
2019/11/21 17:06 CST    0.60   1.38   14  132   16  69.8  63.5 1014.0 -9.9 -9.999 -99.9 -99.99 -9.99
2019/11/21 17:12 CST    0.61   1.41   13  133   14  69.4  63.5 1014.0 -9.9 -9.999 -99.9 -99.99 -9.99
2019/11/21 17:18 CST    0.61   1.39   12  130   14  69.3  63.5 1014.0 -9.9 -9.999 -99.9 -99.99 -9.99
2019/11/21 17:24 CST    0.61   1.44   12  127   13  69.4  63.5 1013.8 -9.9 -9.999 -99.9 -99.99 -9.99
2019/11/21 17:30 CST    0.61   1.39   12  129   13  69.1  63.7 1013.9 -9.9 -9.999 -99.9 -99.99 -9.99
2019/11/21 17:36 CST    0.62   1.40   10  126   12  68.9  63.7 1014.0 -9.9 -9.999 -99.9 -99.99 -9.99
2019/11/21 17:42 CST    0.62   1.41   11  130   11  68.7  63.7 1014.0 -9.9 -9.999 -99.9 -99.99 -9.99
2019/11/21 17:48 CST    0.63   1.38    9  128   11  68.4  63.7 1014.1 -9.9 -9.999 -99.9 -99.99 -9.99
2019/11/21 17:54 CST    0.64   1.40   11  134   12  68.7  63.9 1014.0 -9.9 -9.999 -99.9 -99.99 -9.99
2019/11/21 18:00 CST    0.64   1.42   12  130   13  68.7  64.0 1013.9 -9.9 -9.999 -99.9 -99.99 -9.99
2019/11/21 18:06 CST    0.65   1.42   11  133   12  68.9  64.2 1014.0 -9.9 -9.999 -99.9 -99.99 -9.99
2019/11/21 18:12 CST    0.66   1.45   11  131   12  68.9  64.2 1014.0 -9.9 -9.999 -99.9 -99.99 -9.99
2019/11/21 18:18 CST    0.67   1.46   11  130   12  68.9  64.2 1014.1 -9.9 -9.999 -99.9 -99.99 -9.99
2019/11/21 18:24 CST    0.68   1.44   11  126   12  68.7  64.2 1014.1 -9.9 -9.999 -99.9 -99.99 -9.99
2019/11/21 18:30 CST    0.70   1.43   11  127   12  68.7  64.2 1014.0 -9.9 -9.999 -99.9 -99.99 -9.99
2019/11/21 18:36 CST    0.71   1.50   12  125   13  68.9  64.2 1013.9 -9.9 -9.999 -99.9 -99.99 -9.99
2019/11/21 18:42 CST    0.73   1.41   12  128   14  69.1  64.2 1014.0 -9.9 -9.999 -99.9 -99.99 -9.99
2019/11/21 18:48 CST    0.74   1.51   13  128   14  69.4  64.2 1014.0 -9.9 -9.999 -99.9 -99.99 -9.99
2019/11/21 18:54 CST    0.76   1.51   14  131   16  69.6  64.2 1013.9 -9.9 -9.999 -99.9 -99.99 -9.99
2019/11/21 19:00 CST    0.78   1.59   15  132   17  68.9  64.2 1013.7 -9.9 -9.999 -99.9 -99.99 -9.99
2019/11/21 19:06 CST    0.79   1.61   14  134   16  68.7  64.2 1013.8 -9.9 -9.999 -99.9 -99.99 -9.99
2019/11/21 19:12 CST    0.81   1.63   13  134   15  68.7  64.4 1014.0 -9.9 -9.999 -99.9 -99.99 -9.99
2019/11/21 19:18 CST    0.84   1.64   13  135   14  68.9  64.4 1014.1 -9.9 -9.999 -99.9 -99.99 -9.99
2019/11/21 19:24 CST    0.86   1.65   14  137   16  69.4  64.6 1014.1 -9.9 -9.999 -99.9 -99.99 -9.99
2019/11/21 19:30 CST    0.88   1.71   13  135   16  69.3  64.6 1014.0 -9.9 -9.999 -99.9 -99.99 -9.99
2019/11/21 19:36 CST    0.90   1.75   14  137   16  69.4  64.8 1014.1 -9.9 -9.999 -99.9 -99.99 -9.99
2019/11/21 19:42 CST    0.93   1.78   15  137   16  69.8  64.8 1014.2 -9.9 -9.999 -99.9 -99.99 -9.99
2019/11/21 19:48 CST    0.95   1.79   14  137   15  69.6  64.8 1014.2 -9.9 -9.999 -99.9 -99.99 -9.99
2019/11/21 19:54 CST    0.98   1.80   15  139   17  69.8  64.6 1014.2 -9.9 -9.999 -99.9 -99.99 -9.99
2019/11/21 20:00 CST    1.00   1.85   14  140   16  70.0  64.4 1014.3 -9.9 -9.999 -99.9 -99.99 -9.99
2019/11/21 20:06 CST    1.03   1.86   13  138   16  69.6  64.4 1014.3 -9.9 -9.999 -99.9 -99.99 -9.99
2019/11/21 20:12 CST    1.05   1.85   14  137   16  69.4  64.4 1014.3 -9.9 -9.999 -99.9 -99.99 -9.99
2019/11/21 20:18 CST    1.08   1.91   13  139   16  69.3  64.4 1014.3 -9.9 -9.999 -99.9 -99.99 -9.99
2019/11/21 20:24 CST    1.11   1.97   12  139   15  69.4  64.4 1014.5 -9.9 -9.999 -99.9 -99.99 -9.99
2019/11/21 20:30 CST    1.13   2.01   11  140   12  69.1  64.4 1014.6 -9.9 -9.999 -99.9 -99.99 -9.99
2019/11/21 20:36 CST    1.16   2.05   11  139   12  69.4  64.4 1014.6 -9.9 -9.999 -99.9 -99.99 -9.99
2019/11/21 20:42 CST    1.19   2.04   12  141   13  69.3  64.4 1014.6 -9.9 -9.999 -99.9 -99.99 -9.99
2019/11/21 20:48 CST    1.21   2.10   10  144   12  69.3  64.4 1014.5 -9.9 -9.999 -99.9 -99.99 -9.99
2019/11/21 20:54 CST    1.24   2.12    9  189   15  68.4  64.4 1014.5 -9.9 -9.999 -99.9 -99.99 -9.99
2019/11/21 21:00 CST    1.26   2.13    9  158   12  69.1  64.4 1014.6 -9.9 -9.999 -99.9 -99.99 -9.99
2019/11/21 21:06 CST    1.29   2.19   11  156   13  70.2  64.4 1014.7 -9.9 -9.999 -99.9 -99.99 -9.99
2019/11/21 21:12 CST    1.32   2.14   12  150   14  69.4  64.4 1014.6 -9.9 -9.999 -99.9 -99.99 -9.99
2019/11/21 21:18 CST    1.34   2.20   11  151   13  69.3  64.4 1014.6 -9.9 -9.999 -99.9 -99.99 -9.99
2019/11/21 21:24 CST    1.36   2.19   10  156   11  68.7  64.4 1014.7 -9.9 -9.999 -99.9 -99.99 -9.99
2019/11/21 21:30 CST    1.39   2.21   10  162   10  69.3  64.2 1014.8 -9.9 -9.999 -99.9 -99.99 -9.99
2019/11/21 21:36 CST    1.41   2.26   10  154   13  69.1  64.2 1014.6 -9.9 -9.999 -99.9 -99.99 -9.99
2019/11/21 21:42 CST    1.43   2.25   10  148   11  69.4  64.4 1014.4 -9.9 -9.999 -99.9 -99.99 -9.99
2019/11/21 21:48 CST    1.45   2.29    9  144   11  69.1  64.4 1014.6 -9.9 -9.999 -99.9 -99.99 -9.99
2019/11/21 21:54 CST    1.47   2.32    6  157    9  69.4  64.4 1014.7 -9.9 -9.999 -99.9 -99.99 -9.99
2019/11/21 22:00 CST    1.49   2.37    4  186    9  68.0  64.4 1014.7 -9.9 -9.999 -99.9 -99.99 -9.99
2019/11/21 22:06 CST    1.51   2.40    4  174    5  69.1  64.4 1014.8 -9.9 -9.999 -99.9 -99.99 -9.99
2019/11/21 22:12 CST    1.53   2.41    4  164    7  68.9  64.4 1014.9 -9.9 -9.999 -99.9 -99.99 -9.99
2019/11/21 22:18 CST    1.55   2.39    4  180    6  68.9  64.4 1014.8 -9.9 -9.999 -99.9 -99.99 -9.99
2019/11/21 22:24 CST    1.56   2.40    4  173    5  68.9  64.4 1014.7 -9.9 -9.999 -99.9 -99.99 -9.99
2019/11/21 22:30 CST    1.58   2.44    6  153    6  69.1  64.6 1014.5 -9.9 -9.999 -99.9 -99.99 -9.99
2019/11/21 22:36 CST    1.60   2.43    6  134    7  68.7  64.6 1014.3 -9.9 -9.999 -99.9 -99.99 -9.99
2019/11/21 22:42 CST    1.61   2.49    7  134    8  68.7  64.6 1014.4 -9.9 -9.999 -99.9 -99.99 -9.99
2019/11/21 22:48 CST    1.62   2.50    6  136    7  68.9  64.4 1014.5 -9.9 -9.999 -99.9 -99.99 -9.99
2019/11/21 22:54 CST    1.64   2.51    6  130    7  68.5  64.4 1014.5 -9.9 -9.999 -99.9 -99.99 -9.99
2019/11/21 23:00 CST    1.65   2.49    7  132    8  68.7  64.4 1014.2 -9.9 -9.999 -99.9 -99.99 -9.99
2019/11/21 23:06 CST    1.66   2.55    8  127    8  68.4  64.4 1014.0 -9.9 -9.999 -99.9 -99.99 -9.99
2019/11/21 23:12 CST    1.67   2.59    9  138   11  69.3  64.4 1014.2 -9.9 -9.999 -99.9 -99.99 -9.99
2019/11/21 23:18 CST    1.68   2.58    9  136   10  68.9  64.2 1014.3 -9.9 -9.999 -99.9 -99.99 -9.99
2019/11/21 23:24 CST    1.69   2.59   10  134   10  68.9  64.0 1014.0 -9.9 -9.999 -99.9 -99.99 -9.99
2019/11/21 23:30 CST    1.69   2.57   11  138   12  68.9  64.0 1013.9 -9.9 -9.999 -99.9 -99.99 -9.99
2019/11/21 23:36 CST    1.70   2.60   10  144   11  68.4  64.0 1014.1 -9.9 -9.999 -99.9 -99.99 -9.99
2019/11/21 23:42 CST    1.71   2.60   11  143   12  68.7  64.0 1013.9 -9.9 -9.999 -99.9 -99.99 -9.99
2019/11/21 23:48 CST    1.71   2.56   14  143   14  68.7  64.0 1013.6 -9.9 -9.999 -99.9 -99.99 -9.99
2019/11/21 23:54 CST    1.71   2.57   14  142   15  68.7  64.0 1013.5 -9.9 -9.999 -99.9 -99.99 -9.99
2019/11/22 00:00 CST    1.72   2.58   15  143   17  69.3  64.0 1013.4 -9.9 -9.999 -99.9 -99.99 -9.99
2019/11/22 00:06 CST    1.72   2.61   16  144   17  69.1  63.9 1013.2 -9.9 -9.999 -99.9 -99.99 -9.99
2019/11/22 00:12 CST    1.72   2.59   15  145   17  69.3  63.9 1013.1 -9.9 -9.999 -99.9 -99.99 -9.99
2019/11/22 00:18 CST    1.72   2.60   16  148   17  69.4  63.7 1013.1 -9.9 -9.999 -99.9 -99.99 -9.99
2019/11/22 00:24 CST    1.71   2.61   17  149   19  69.8  63.7 1012.8 -9.9 -9.999 -99.9 -99.99 -9.99
2019/11/22 00:30 CST    1.71   2.62   17  150   20  70.0  63.7 1012.9 -9.9 -9.999 -99.9 -99.99 -9.99
2019/11/22 00:36 CST    1.71   2.61   16  151   18  69.6  63.7 1012.9 -9.9 -9.999 -99.9 -99.99 -9.99
2019/11/22 00:42 CST    1.70   2.63   17  151   19  69.6  63.7 1012.6 -9.9 -9.999 -99.9 -99.99 -9.99
2019/11/22 00:48 CST    1.69   2.61   18  154   20  69.6  63.7 1012.5 -9.9 -9.999 -99.9 -99.99 -9.99
2019/11/22 00:54 CST    1.68   2.58   19  158   21  69.6  63.7 1012.6 -9.9 -9.999 -99.9 -99.99 -9.99
2019/11/22 01:00 CST    1.68   2.57   20  157   22  70.0  63.7 1012.3 -9.9 -9.999 -99.9 -99.99 -9.99
2019/11/22 01:06 CST    1.66   2.57   21  159   23  70.0  63.9 1012.2 -9.9 -9.999 -99.9 -99.99 -9.99
2019/11/22 01:12 CST    1.65   2.54   21  158   23  70.2  63.9 1012.1 -9.9 -9.999 -99.9 -99.99 -9.99
2019/11/22 01:18 CST    1.64   2.55   18  159   22  70.2  63.9 1012.4 -9.9 -9.999 -99.9 -99.99 -9.99
2019/11/22 01:24 CST    1.63   2.55   17  158   20  70.2  63.7 1012.4 -9.9 -9.999 -99.9 -99.99 -9.99
2019/11/22 01:30 CST    1.61   2.61   16  159   19  70.3  63.7 1012.7 -9.9 -9.999 -99.9 -99.99 -9.99
2019/11/22 01:36 CST    1.59   2.54   14  163   18  71.2  63.7 1013.1 -9.9 -9.999 -99.9 -99.99 -9.99
2019/11/22 01:42 CST    1.58   2.55   12  164   15  70.7  63.7 1013.1 -9.9 -9.999 -99.9 -99.99 -9.99
2019/11/22 01:48 CST    1.56   2.51   11  162   14  70.3  63.7 1013.1 -9.9 -9.999 -99.9 -99.99 -9.99
2019/11/22 01:54 CST    1.54   2.49   11  161   12  70.3  63.7 1013.1 -9.9 -9.999 -99.9 -99.99 -9.99
2019/11/22 02:00 CST    1.52   2.47   10  162   11  70.2  63.7 1013.1 -9.9 -9.999 -99.9 -99.99 -9.99
2019/11/22 02:06 CST    1.50   2.44    9  160   10  70.2  63.7 1013.0 -9.9 -9.999 -99.9 -99.99 -9.99
2019/11/22 02:12 CST    1.48   2.46    9  162   10  70.0  63.7 1013.0 -9.9 -9.999 -99.9 -99.99 -9.99
2019/11/22 02:18 CST    1.46   2.41    9  163   10  70.0  63.7 1013.0 -9.9 -9.999 -99.9 -99.99 -9.99
2019/11/22 02:24 CST    1.44   2.37    7  165    9  70.0  63.9 1013.1 -9.9 -9.999 -99.9 -99.99 -9.99
2019/11/22 02:30 CST    1.42   2.33    6  167    7  69.8  63.9 1013.1 -9.9 -9.999 -99.9 -99.99 -9.99
2019/11/22 02:36 CST    1.40   2.33    6  168    7  69.8  63.9 1013.1 -9.9 -9.999 -99.9 -99.99 -9.99
2019/11/22 02:42 CST    1.37   2.31    6  158    7  70.0  63.9 1013.0 -9.9 -9.999 -99.9 -99.99 -9.99
2019/11/22 02:48 CST    1.35   2.30    7  160    7  70.2  63.9 1013.1 -9.9 -9.999 -99.9 -99.99 -9.99
2019/11/22 02:54 CST    1.33   2.32    7  161    8  70.5  64.0 1013.0 -9.9 -9.999 -99.9 -99.99 -9.99
2019/11/22 03:00 CST    1.31   2.27    8  164    8  70.7  64.0 1013.0 -9.9 -9.999 -99.9 -99.99 -9.99
2019/11/22 03:06 CST    1.29   2.24    8  163    8  70.5  63.9 1013.0 -9.9 -9.999 -99.9 -99.99 -9.99
2019/11/22 03:12 CST    1.27   2.20    8  159    8  70.2  63.9 1012.9 -9.9 -9.999 -99.9 -99.99 -9.99
2019/11/22 03:18 CST    1.25   2.17    8  160    8  70.0  64.0 1012.9 -9.9 -9.999 -99.9 -99.99 -9.99
2019/11/22 03:24 CST    1.22   2.14    8  161    8  69.8  64.0 1013.1 -9.9 -9.999 -99.9 -99.99 -9.99
2019/11/22 03:30 CST    1.20   2.11    7  164    7  70.2  64.0 1013.2 -9.9 -9.999 -99.9 -99.99 -9.99
2019/11/22 03:36 CST    1.18   2.07    7  167    7  70.0  64.0 1013.3 -9.9 -9.999 -99.9 -99.99 -9.99
2019/11/22 03:42 CST    1.17   2.03    7  161    7  69.6  64.0 1013.1 -9.9 -9.999 -99.9 -99.99 -9.99
2019/11/22 03:48 CST    1.15   2.02    8  162    9  69.6  63.9 1013.0 -9.9 -9.999 -99.9 -99.99 -9.99
2019/11/22 03:54 CST    1.13   2.01    9  159   10  69.4  64.0 1013.0 -9.9 -9.999 -99.9 -99.99 -9.99
2019/11/22 04:00 CST    1.11   2.02   10  162   10  69.3  64.0 1013.0 -9.9 -9.999 -99.9 -99.99 -9.99
2019/11/22 04:06 CST    1.09   2.04    9  162   10  69.1  64.0 1013.0 -9.9 -9.999 -99.9 -99.99 -9.99
2019/11/22 04:12 CST    1.07   2.01   11  159   11  69.1  64.0 1012.8 -9.9 -9.999 -99.9 -99.99 -9.99
2019/11/22 04:18 CST    1.06   1.96   12  158   12  69.6  64.0 1012.7 -9.9 -9.999 -99.9 -99.99 -9.99
2019/11/22 04:24 CST    1.04   1.87   12  157   13  69.8  64.0 1012.7 -9.9 -9.999 -99.9 -99.99 -9.99
2019/11/22 04:30 CST    1.03   1.86   12  159   13  70.0  64.0 1012.7 -9.9 -9.999 -99.9 -99.99 -9.99
2019/11/22 04:36 CST    1.01   1.81   13  158   13  70.3  64.0 1012.7 -9.9 -9.999 -99.9 -99.99 -9.99
2019/11/22 04:42 CST    1.00   1.83   12  158   13  70.2  64.0 1012.7 -9.9 -9.999 -99.9 -99.99 -9.99
2019/11/22 04:48 CST    0.98   1.85   12  158   12  70.2  64.2 1012.6 -9.9 -9.999 -99.9 -99.99 -9.99
2019/11/22 04:54 CST    0.97   1.82   12  152   12  69.6  64.2 1012.6 -9.9 -9.999 -99.9 -99.99 -9.99
2019/11/22 05:00 CST    0.95   1.82   12  151   13  70.0  64.2 1012.7 -9.9 -9.999 -99.9 -99.99 -9.99
2019/11/22 05:06 CST    0.94   1.81   11  150   13  69.8  64.2 1012.7 -9.9 -9.999 -99.9 -99.99 -9.99
2019/11/22 05:12 CST    0.93   1.82   12  149   13  70.3  64.2 1012.8 -9.9 -9.999 -99.9 -99.99 -9.99
2019/11/22 05:18 CST    0.92   1.78   12  153   16  71.4  64.2 1012.8 -9.9 -9.999 -99.9 -99.99 -9.99
2019/11/22 05:24 CST    0.91   1.79   11  153   12  71.2  64.2 1012.9 -9.9 -9.999 -99.9 -99.99 -9.99
2019/11/22 05:30 CST    0.90   1.77   10  147   11  71.6  64.2 1012.9 -9.9 -9.999 -99.9 -99.99 -9.99
2019/11/22 05:36 CST    0.89   1.77    8  143   11  70.7  64.2 1013.0 -9.9 -9.999 -99.9 -99.99 -9.99
2019/11/22 05:42 CST    0.88   1.78    8  143    9  70.2  64.2 1013.0 -9.9 -9.999 -99.9 -99.99 -9.99
2019/11/22 05:48 CST    0.87   1.80    6  143    8  69.6  64.2 1013.2 -9.9 -9.999 -99.9 -99.99 -9.99
2019/11/22 05:54 CST    0.86   1.78    5  138    7  69.3  64.2 1013.2 -9.9 -9.999 -99.9 -99.99 -9.99
2019/11/22 06:00 CST    0.86   1.79    4  136    5  69.1  64.2 1013.3 -9.9 -9.999 -99.9 -99.99 -9.99
2019/11/22 06:06 CST    0.85   1.79    4  128    4  68.7  64.2 1013.4 -9.9 -9.999 -99.9 -99.99 -9.99
2019/11/22 06:12 CST    0.84   1.78    4  131    5  68.9  64.4 1013.4 -9.9 -9.999 -99.9 -99.99 -9.99
2019/11/22 06:18 CST    0.84   1.81    6  135    6  69.3  64.4 1013.3 -9.9 -9.999 -99.9 -99.99 -9.99
2019/11/22 06:24 CST    0.84   1.74    6  136    7  69.1  64.4 1013.4 -9.9 -9.999 -99.9 -99.99 -9.99
2019/11/22 06:30 CST    0.84 -99.99 -999 -999 -999 -99.9 -99.9 -999.9 -9.9 -9.999 -99.9 -99.99 -9.99
2019/11/22 06:36 CST    0.83 -99.99 -999 -999 -999 -99.9 -99.9 -999.9 -9.9 -9.999 -99.9 -99.99 -9.99
2019/11/22 06:42 CST    0.83 -99.99 -999 -999 -999 -99.9 -99.9 -999.9 -9.9 -9.999 -99.9 -99.99 -9.99
2019/11/22 06:48 CST    0.84 -99.99 -999 -999 -999 -99.9 -99.9 -999.9 -9.9 -9.999 -99.9 -99.99 -9.99
2019/11/22 06:54 CST    0.84 -99.99 -999 -999 -999 -99.9 -99.9 -999.9 -9.9 -9.999 -99.9 -99.99 -9.99
2019/11/22 07:00 CST    0.84 -99.99 -999 -999 -999 -99.9 -99.9 -999.9 -9.9 -9.999 -99.9 -99.99 -9.99
2019/11/22 07:06 CST    0.85 -99.99 -999 -999 -999 -99.9 -99.9 -999.9 -9.9 -9.999 -99.9 -99.99 -9.99
2019/11/22 07:12 CST    0.85 -99.99 -999 -999 -999 -99.9 -99.9 -999.9 -9.9 -9.999 -99.9 -99.99 -9.99
2019/11/22 07:18 CST    0.86 -99.99 -999 -999 -999 -99.9 -99.9 -999.9 -9.9 -9.999 -99.9 -99.99 -9.99
2019/11/22 07:24 CST    0.87 -99.99 -999 -999 -999 -99.9 -99.9 -999.9 -9.9 -9.999 -99.9 -99.99 -9.99
2019/11/22 07:30 CST    0.88 -99.99 -999 -999 -999 -99.9 -99.9 -999.9 -9.9 -9.999 -99.9 -99.99 -9.99
2019/11/22 07:36 CST    0.89 -99.99 -999 -999 -999 -99.9 -99.9 -999.9 -9.9 -9.999 -99.9 -99.99 -9.99
2019/11/22 07:42 CST    0.90 -99.99 -999 -999 -999 -99.9 -99.9 -999.9 -9.9 -9.999 -99.9 -99.99 -9.99
2019/11/22 07:48 CST    0.91 -99.99 -999 -999 -999 -99.9 -99.9 -999.9 -9.9 -9.999 -99.9 -99.99 -9.99
2019/11/22 07:54 CST    0.92 -99.99 -999 -999 -999 -99.9 -99.9 -999.9 -9.9 -9.999 -99.9 -99.99 -9.99
2019/11/22 08:00 CST    0.94 -99.99 -999 -999 -999 -99.9 -99.9 -999.9 -9.9 -9.999 -99.9 -99.99 -9.99
2019/11/22 08:06 CST    0.95 -99.99 -999 -999 -999 -99.9 -99.9 -999.9 -9.9 -9.999 -99.9 -99.99 -9.99
2019/11/22 08:12 CST    0.97 -99.99 -999 -999 -999 -99.9 -99.9 -999.9 -9.9 -9.999 -99.9 -99.99 -9.99
2019/11/22 08:18 CST    0.98 -99.99 -999 -999 -999 -99.9 -99.9 -999.9 -9.9 -9.999 -99.9 -99.99 -9.99
2019/11/22 08:24 CST    1.00 -99.99 -999 -999 -999 -99.9 -99.9 -999.9 -9.9 -9.999 -99.9 -99.99 -9.99
2019/11/22 08:30 CST    1.02 -99.99 -999 -999 -999 -99.9 -99.9 -999.9 -9.9 -9.999 -99.9 -99.99 -9.99
2019/11/22 08:36 CST    1.03 -99.99 -999 -999 -999 -99.9 -99.9 -999.9 -9.9 -9.999 -99.9 -99.99 -9.99
2019/11/22 08:42 CST    1.05 -99.99 -999 -999 -999 -99.9 -99.9 -999.9 -9.9 -9.999 -99.9 -99.99 -9.99
2019/11/22 08:48 CST    1.07 -99.99 -999 -999 -999 -99.9 -99.9 -999.9 -9.9 -9.999 -99.9 -99.99 -9.99
2019/11/22 08:54 CST    1.09 -99.99 -999 -999 -999 -99.9 -99.9 -999.9 -9.9 -9.999 -99.9 -99.99 -9.99
2019/11/22 09:00 CST    1.11 -99.99 -999 -999 -999 -99.9 -99.9 -999.9 -9.9 -9.999 -99.9 -99.99 -9.99
2019/11/22 09:06 CST    1.13 -99.99 -999 -999 -999 -99.9 -99.9 -999.9 -9.9 -9.999 -99.9 -99.99 -9.99
2019/11/22 09:12 CST    1.15 -99.99 -999 -999 -999 -99.9 -99.9 -999.9 -9.9 -9.999 -99.9 -99.99 -9.99
2019/11/22 09:18 CST    1.16 -99.99 -999 -999 -999 -99.9 -99.9 -999.9 -9.9 -9.999 -99.9 -99.99 -9.99
2019/11/22 09:24 CST    1.18 -99.99 -999 -999 -999 -99.9 -99.9 -999.9 -9.9 -9.999 -99.9 -99.99 -9.99
2019/11/22 09:30 CST    1.20 -99.99 -999 -999 -999 -99.9 -99.9 -999.9 -9.9 -9.999 -99.9 -99.99 -9.99
2019/11/22 09:36 CST    1.22 -99.99 -999 -999 -999 -99.9 -99.9 -999.9 -9.9 -9.999 -99.9 -99.99 -9.99
2019/11/22 09:42 CST    1.24 -99.99 -999 -999 -999 -99.9 -99.9 -999.9 -9.9 -9.999 -99.9 -99.99 -9.99
2019/11/22 09:48 CST    1.25 -99.99 -999 -999 -999 -99.9 -99.9 -999.9 -9.9 -9.999 -99.9 -99.99 -9.99
2019/11/22 09:54 CST    1.27 -99.99 -999 -999 -999 -99.9 -99.9 -999.9 -9.9 -9.999 -99.9 -99.99 -9.99
2019/11/22 10:00 CST    1.29 -99.99 -999 -999 -999 -99.9 -99.9 -999.9 -9.9 -9.999 -99.9 -99.99 -9.99
2019/11/22 10:06 CST    1.31 -99.99 -999 -999 -999 -99.9 -99.9 -999.9 -9.9 -9.999 -99.9 -99.99 -9.99
2019/11/22 10:12 CST    1.32 -99.99 -999 -999 -999 -99.9 -99.9 -999.9 -9.9 -9.999 -99.9 -99.99 -9.99
2019/11/22 10:18 CST    1.34 -99.99 -999 -999 -999 -99.9 -99.9 -999.9 -9.9 -9.999 -99.9 -99.99 -9.99
2019/11/22 10:24 CST    1.35 -99.99 -999 -999 -999 -99.9 -99.9 -999.9 -9.9 -9.999 -99.9 -99.99 -9.99
2019/11/22 10:30 CST    1.37 -99.99 -999 -999 -999 -99.9 -99.9 -999.9 -9.9 -9.999 -99.9 -99.99 -9.99
2019/11/22 10:36 CST    1.38 -99.99 -999 -999 -999 -99.9 -99.9 -999.9 -9.9 -9.999 -99.9 -99.99 -9.99
2019/11/22 10:42 CST    1.39 -99.99 -999 -999 -999 -99.9 -99.9 -999.9 -9.9 -9.999 -99.9 -99.99 -9.99
2019/11/22 10:48 CST    1.41 -99.99 -999 -999 -999 -99.9 -99.9 -999.9 -9.9 -9.999 -99.9 -99.99 -9.99
2019/11/22 10:54 CST    1.42 -99.99 -999 -999 -999 -99.9 -99.9 -999.9 -9.9 -9.999 -99.9 -99.99 -9.99
2019/11/22 11:00 CST    1.43 -99.99 -999 -999 -999 -99.9 -99.9 -999.9 -9.9 -9.999 -99.9 -99.99 -9.99
2019/11/22 11:06 CST    1.44 -99.99 -999 -999 -999 -99.9 -99.9 -999.9 -9.9 -9.999 -99.9 -99.99 -9.99
2019/11/22 11:12 CST    1.45 -99.99 -999 -999 -999 -99.9 -99.9 -999.9 -9.9 -9.999 -99.9 -99.99 -9.99
2019/11/22 11:18 CST    1.46 -99.99 -999 -999 -999 -99.9 -99.9 -999.9 -9.9 -9.999 -99.9 -99.99 -9.99
2019/11/22 11:24 CST    1.47 -99.99 -999 -999 -999 -99.9 -99.9 -999.9 -9.9 -9.999 -99.9 -99.99 -9.99
2019/11/22 11:30 CST    1.48 -99.99 -999 -999 -999 -99.9 -99.9 -999.9 -9.9 -9.999 -99.9 -99.99 -9.99
2019/11/22 11:36 CST    1.49 -99.99 -999 -999 -999 -99.9 -99.9 -999.9 -9.9 -9.999 -99.9 -99.99 -9.99
2019/11/22 11:42 CST    1.50 -99.99 -999 -999 -999 -99.9 -99.9 -999.9 -9.9 -9.999 -99.9 -99.99 -9.99
2019/11/22 11:48 CST    1.50 -99.99 -999 -999 -999 -99.9 -99.9 -999.9 -9.9 -9.999 -99.9 -99.99 -9.99
2019/11/22 11:54 CST    1.51 -99.99 -999 -999 -999 -99.9 -99.9 -999.9 -9.9 -9.999 -99.9 -99.99 -9.99
2019/11/22 12:00 CST    1.51 -99.99 -999 -999 -999 -99.9 -99.9 -999.9 -9.9 -9.999 -99.9 -99.99 -9.99
2019/11/22 12:06 CST    1.52 -99.99 -999 -999 -999 -99.9 -99.9 -999.9 -9.9 -9.999 -99.9 -99.99 -9.99
2019/11/22 12:12 CST    1.52 -99.99 -999 -999 -999 -99.9 -99.9 -999.9 -9.9 -9.999 -99.9 -99.99 -9.99
2019/11/22 12:18 CST    1.52 -99.99 -999 -999 -999 -99.9 -99.9 -999.9 -9.9 -9.999 -99.9 -99.99 -9.99
2019/11/22 12:24 CST    1.52 -99.99 -999 -999 -999 -99.9 -99.9 -999.9 -9.9 -9.999 -99.9 -99.99 -9.99
2019/11/22 12:30 CST    1.52 -99.99 -999 -999 -999 -99.9 -99.9 -999.9 -9.9 -9.999 -99.9 -99.99 -9.99
2019/11/22 12:36 CST    1.52 -99.99 -999 -999 -999 -99.9 -99.9 -999.9 -9.9 -9.999 -99.9 -99.99 -9.99
2019/11/22 12:42 CST    1.52 -99.99 -999 -999 -999 -99.9 -99.9 -999.9 -9.9 -9.999 -99.9 -99.99 -9.99